Regional Weather Roundup
Issued by NWS Upton, NY

Current Version | Previous Version | Graphics & Text | Print | Product List | Glossary Off
Versions: 1 2 3 4 5 6 7 8 9 10 11 12 13 14 15 16 17 18 19 20 21 22 23 24 25 26 27

000
ASUS41 KOKX 230005
RWROKX

REGIONAL WEATHER ROUNDUP
NATIONAL WEATHER SERVICE NEW YORK NY
800 PM EDT TUE APR 22 2014

NOTE: "FAIR" INDICATES FEW OR NO CLOUDS BELOW 12,000 FEET WITH NO
SIGNIFICANT WEATHER AND/OR OBSTRUCTIONS TO VISIBILITY.

NYZ071-072-176-178-NJZ106-104-230100-
NEW YORK CITY METRO AREA


CITY           SKY/WX    TMP DP  RH WIND       PRES   REMARKS
CENTRAL PARK   LGT RAIN  64  52  64 W8        29.56R
LAGUARDIA APRT CLOUDY    63  49  60 W3        29.53R
KENNEDY INTL   CLOUDY    56  48  74 CALM      29.55R
NEWARK/LIBERTY LGT RAIN  65  52  62 W10G21    29.53S
TETERBORO      LGT RAIN  65  52  62 SW7       29.52R
$$

NYZ177-179-078>081-230100-
LONG ISLAND NEW YORK

CITY           SKY/WX    TMP DP  RH WIND       PRES   REMARKS
FARMINGDALE    CLOUDY    52  46  80 S5        29.54F
ISLIP          CLOUDY    53  47  79 S5        29.52F
SHIRLEY        CLOUDY    52  48  86 SW8       29.55F
WESTHAMPTON    CLOUDY    51  48  89 S5        29.56F
MONTAUK POINT    N/A     52  47  83 S8        29.57F
$$

NYZ052-065-067-230100-
HUDSON VALLEY

CITY           SKY/WX    TMP DP  RH WIND       PRES   REMARKS
WHITE PLAINS   LGT RAIN  56  50  80 CALM      29.53R
NEWBURGH       MOCLDY    59  54  82 W9        29.54R
MONTGOMERY     CLOUDY    58  50  75 SW6       29.52R
POUGHKEEPSIE   LGT RAIN  62  51  67 SW6       29.51R
ALBANY         MOCLDY    58  51  78 W7        29.51R
$$

NJZ001-105-106-008-010-013-015-019>022-104-230100-
NEW JERSEY

CITY           SKY/WX    TMP DP  RH WIND       PRES   REMARKS
NEWARK/LIBERTY LGT RAIN  65  52  62 W10G21    29.53S
TETERBORO      LGT RAIN  65  52  62 SW7       29.52R
CALDWELL       CLOUDY    62  52  69 SW6       29.54R
MORRISTOWN     MOCLDY    63  52  67 W12       29.54S
SOMERVILLE     CLOUDY    63  52  67 VRB3      29.54R
LINDEN         CLOUDY    66  54  65 W9        29.55S
SUSSEX         MOCLDY    61  50  67 CALM      29.54R
ANDOVER          N/A     58  52  80 VRB3      29.55R
TRENTON        CLOUDY    65  52  62 W9        29.57R
MILLVILLE      CLOUDY    63  54  72 W5        29.59R
ATLANTIC CITY  CLOUDY    65  52  62 W8        29.57R
WRIGHTSTOWN    CLOUDY    65  53  63 W7        29.55R
TOMS RIVER     CLOUDY    66  52  59 W7        29.56S
BELMAR         CLOUDY    66  50  55 W9        29.55S
$$

PAZ047>061-062-071-230100-
EASTERN PENNSYLVANIA

CITY           SKY/WX    TMP DP  RH WIND       PRES   REMARKS
PHILADELPHIA   TSTM      66  50  56 W31G39    29.62R
ALLENTOWN      CLOUDY    58  47  66 W5        29.55F
SCRANTON       CLOUDY    61  49  64 SW6       29.55R
$$

CTZ002-004>006-009-010-012-RIZ004-006-007-MAZ004-011-015-230100-
SOUTHERN NEW ENGLAND
 IN CT

CITY           SKY/WX    TMP DP  RH WIND       PRES   REMARKS
BRADLEY INTL   CLOUDY    60  47  61 S12       29.50R
HARTFORD       CLOUDY    58  49  72 S8        29.51S
DANBURY        CLOUDY    59  50  72 CALM      29.54R
WTRBRY/OXFORD  NOT AVBL
BRIDGEPORT     CLOUDY    55  47  74 S9        29.53S
MERIDEN        CLOUDY    55  50  83 SW3       29.52S
NEW HAVEN      CLOUDY    53  47  79 S6        29.53S
CHESTER        CLOUDY    54  48  82 S6        29.54F
GROTON         LGT RAIN  51  48  89 S12       29.54F
WILLIMANTIC    LGT RAIN  57  49  74 S5        29.51F

 IN RI

CITY           SKY/WX    TMP DP  RH WIND       PRES   REMARKS
PROVIDENCE     LGT RAIN  58  46  64 SW14      29.54S
BLOCK ISLAND   CLOUDY    52  45  76 SW13      29.56S
WESTERLY       CLOUDY    52  47  83 S9        29.55F

 IN MA

CITY           SKY/WX    TMP DP  RH WIND       PRES   REMARKS
BOSTON         CLOUDY    60  44  55 S15       29.49S
WORCESTER      CLOUDY    59  44  57 SW9       29.50S
WESTFIELD      LGT RAIN  62  49  62 S12       29.49R
PROVINCETOWN   MOCLDY    52  46  82 MISG      29.55S
NANTUCKET      MOCLDY    48  44  86 S7        29.58F
$$

ANZ330-335-338-340-345-350-353-355-230100-
COASTAL MARINE OBSERVATIONS


STATION/POSITION TIME  SKY/WX   TEMP    WIND        PRES    VSBY  WAVE
                                AIR SEA DIR/SP/G                  HT/PER
                 (UTC)          (F)     (DEG/KT/KT) (MB)    (MI)  (FT/S)
NY HARB ENTRANCE 0000            49 48  VRB  8/ 10  1000.3
4S FIRE IS       2300               47                N/A           4/ 8
23SW MTP         0000            47 44  200/  8/ 10 1000.7          3/ 8
HUDSON CANYON    2300            48 47  200/ 12/ 14 1001.5          5/ 9
EXECUTION ROCKS  0000            54 47  270/  2/  6   N/A
WESTERN LI SOUND 0000            53     300/  4/  8   N/A           0
CENTRAL LI SOUND 2300            49 43  190/  6/  8   N/A           1/ 3
EASTERN LI SOUND NOT AVBL
ROBBINS REEF     0000            64     280/ 15/ 18   N/A
$$


>>>>>>>>>>>>>>>>>>>>>>>>>>>> KEY <<<<<<<<<<<<<<<<<<<<<<<<<<<
>                                                          <
>     SKY/WX - SKY CONDITION/PRESENT WEATHER               <
>     TMP    - TEMPERATURE IN FAHRENHEIT                   <
>     DP     - DEWPOINT IN FAHRENHEIT                      <
>     RH     - RELATIVE HUMIDITY IN PERCENT                <
>     WIND   - DIRECTION AND SPEED IN MPH                  <
>     PRES   - MEAN SEA LEVEL PRESSURE IN INCHES OF HG     <
>     WCI    - WIND CHILL INDEX                            <
>     VSB    - VISIBILITY IN MILES                         <
>     HX     - HEAT INDEX                                  <
>     TC     - TEMPERATURE IN CELSIUS                      <
>     VRB    - VARIABLE WIND DIRECTION                     <
>                                                          <
>>>>>>>>>>>>>>>>>>>>>>>>>>>> KEY <<<<<<<<<<<<<<<<<<<<<<<<<<<





USA.gov is the U.S. government's official web portal to all federal, state and local government web resources and services.